This demonstration page uses our WeatherBlox Daily Observations layout. Learn more.

Left ArrowRight Arrow

Hourly Observations for March 6, 2018

Temp ( °F °C ) Dew Point ( °F °C ) Humidity (%) Winds ( mph kmh ) Pressure ( in mb ) Visibility ( mi km ) Precip ( " mm )
12:54 am 00:54 Cloudy 35 1.7 20 -6.7 54 54 WNW 28 44 29.76 1008 10 16 0.00 0.00
1:54 am 01:54 Windy with Snow Likely 31 -0.6 23 -5 72 72 WNW 29 46 29.77 1008 4 6 0.00 0.03
2:16 am 02:16 Windy with Snow Likely 30 -1.1 25 -3.9 82 82 WNW 26 43 29.80 1009 2 3 0.00 0.03
2:39 am 02:39 Windy with Snow Likely 29 -1.7 24 -4.4 82 82 WNW 31 50 29.80 1009 3 4 0.00 0.03
2:46 am 02:46 Windy with Snow Likely 30 -1.1 24 -4.4 79 79 WNW 28 44 29.80 1009 3 4 0.00 0.03
2:54 am 02:54 Windy with Snow Likely 29 -1.7 23 -5 78 78 WNW 35 56 29.74 1007 2 3 0.00 0.03
3:02 am 03:02 Windy with Snow Likely 29 -1.7 23 -5 78 78 WNW 30 48 29.77 1008 2 3 0.00 0.03
3:07 am 03:07 Windy with Snow Likely 29 -1.7 23 -5 78 78 WNW 28 44 29.77 1008 2 3 0.00 0.03
3:19 am 03:19 Windy with Snow Likely 29 -1.7 23 -5 78 78 WNW 25 41 29.77 1008 3 4 0.00 0.03
3:27 am 03:27 Windy with Snow Likely 29 -1.7 24 -4.4 82 82 WNW 24 39 29.77 1008 4 6 0.00 0.03
3:49 am 03:49 Windy with Snow Likely 28 -2 21 -6 74 74 WNW 29 46 29.77 1008 2 3 0.00 0.03
3:54 am 03:54 Windy with Snow Likely 29 -1.7 23 -5 78 78 WNW 28 44 29.73 1007 1 2 0.00 0.03
4:54 am 04:54 Mostly Cloudy with Light Snow 28 -2.2 23 -5 81 81 WNW 26 43 29.74 1007 1 2 0.00 0.03
5:11 am 05:11 Mostly Cloudy with Light Snow 27 -2.8 23 -5 85 85 WNW 31 50 29.77 1008 1 1 0.00 0.03
5:24 am 05:24 Mostly Cloudy with Light Snow 27 -2.8 23 -5 85 85 WNW 32 52 29.77 1008 1 1 0.00 0.03
5:33 am 05:33 Mostly Cloudy with Light Snow 27 -2.8 22 -5.6 81 81 WNW 31 50 29.77 1008 1 1 0.00 0.03
5:40 am 05:40 Windy with Snow Likely 27 -2.8 22 -5.6 81 81 WNW 28 44 29.77 1008 2 2 0.00 0.03
5:50 am 05:50 Windy with Snow Likely 28 -2 21 -6 74 74 WNW 23 37 29.77 1008 2 3 0.00 0.03
5:54 am 05:54 Windy with Snow Likely 28 -2.2 22 -5.6 78 78 WNW 30 48 29.76 1008 5 8 0.00 0.03
6:04 am 06:04 Windy with Snow Likely 28 -2.2 22 -5.6 78 78 WNW 23 37 29.80 1009 7 11 0.00 0.03
6:35 am 06:35 Windy with Snow Likely 28 -2.2 20 -6.7 72 72 WNW 32 52 29.80 1009 5 8 0.00 0.03
6:54 am 06:54 Windy with Snow Likely 28 -2.2 20 -6.7 72 72 WNW 30 48 29.77 1008 5 8 0.00 0.03
7:04 am 07:04 Windy with Snow Likely 28 -2.2 21 -6.1 75 75 WNW 30 48 29.80 1009 2 3 0.00 0.03
7:25 am 07:25 Windy with Snow Likely 27 -2.8 22 -5.6 81 81 WNW 29 46 29.83 1010 2 3 0.00 0.03
7:43 am 07:43 Mostly Cloudy with Light Snow 27 -2.8 22 -5.6 81 81 WNW 25 41 29.83 1010 1 1 0.00 0.03
7:54 am 07:54 Mostly Cloudy with Light Snow 27 -2.8 23 -5 85 85 WNW 30 48 29.80 1009 1 1 0.00 0.03
8:13 am 08:13 Mostly Cloudy with Light Snow 27 -2.8 23 -5 85 85 NW 26 43 29.85 1011 1 1 0.00 0.03
8:51 am 08:51 Windy with Snow Likely 28 -2 25 -4 86 86 WNW 26 43 29.85 1011 1 1 0.00 0.03
8:54 am 08:54 Windy with Snow Likely 28 -2.2 24 -4.4 85 85 NW 26 43 29.84 1010 1 1 0.00 0.03
9:54 am 09:54 Windy with Snow Likely 28 -2.2 24 -4.4 85 85 NW 25 41 29.89 1012 1 1 0.00 0.03
10:04 am 10:04 Windy with Snow Likely 28 -2.2 23 -5 81 81 NW 31 50 29.94 1014 1 2 0.00 0.03
10:07 am 10:07 Windy with Snow Likely 29 -1.7 23 -5 78 78 NW 26 43 29.94 1014 2 3 0.00 0.03
10:11 am 10:11 Windy with Snow Likely 29 -1.7 23 -5 78 78 NW 29 46 29.94 1014 3 5 0.00 0.03
10:54 am 10:54 Cloudy 30 -1.1 22 -5.6 72 72 NW 28 44 29.92 1013 10 16 0.00 0.03
11:54 am 11:54 Cloudy 31 -0.6 22 -5.6 69 69 NW 30 48 29.96 1014 9 14 0.00 0.00
12:54 pm 12:54 Cloudy 33 0.6 24 -4.4 70 70 NNW 32 52 29.98 1015 7 11 0.00 0.00
1:16 pm 13:16 Windy with Snow Likely 33 0.6 24 -4.4 70 70 NNW 30 48 30.03 1017 5 8 0.00 0.03
1:46 pm 13:46 Windy with Snow Likely 33 0.6 24 -4.4 70 70 NW 30 48 30.03 1017 3 5 0.00 0.03
1:54 pm 13:54 Windy with Snow Likely 33 0.6 25 -3.9 72 72 NNW 35 56 30.02 1017 3 5 0.00 0.03
2:02 pm 14:02 Windy with Snow Likely 33 0.6 25 -3.9 72 72 NW 28 44 30.06 1018 3 4 0.00 0.03
2:20 pm 14:20 Windy with Snow Likely 33 0.6 25 -3.9 72 72 NNW 33 54 30.06 1018 5 8 0.00 0.03
2:54 pm 14:54 Windy with Snow Likely 32 0 24 -4.4 73 73 NW 23 37 30.07 1018 5 8 0.00 0.03
3:54 pm 15:54 Cloudy 32 0 24 -4.4 73 73 NW 24 39 30.11 1020 9 14 0.00 0.03
4:54 pm 16:54 Cloudy 31 -0.6 23 -5 72 72 NW 23 37 30.15 1021 10 16 0.00 0.00
5:54 pm 17:54 Cloudy 31 -0.6 23 -5 72 72 NNW 24 39 30.18 1022 10 16 0.00 0.00
6:54 pm 18:54 Cloudy 31 -0.6 22 -5.6 69 69 NNW 21 33 30.21 1023 10 16 0.00 0.00
7:54 pm 19:54 Cloudy 30 -1.1 20 -6.7 66 66 NNW 20 31 30.24 1024 10 16 0.00 0.00
8:54 pm 20:54 Cloudy 30 -1.1 21 -6.1 69 69 NNW 17 28 30.26 1025 10 16 0.00 0.00
9:54 pm 21:54 Cloudy 30 -1.1 22 -5.6 72 72 NNW 25 41 30.26 1025 10 16 0.00 0.00
10:54 pm 22:54 Cloudy 29 -1.7 20 -6.7 69 69 NNW 16 26 30.27 1025 10 16 0.00 0.00
11:54 pm 23:54 Mostly Cloudy 27 -2.8 18 -7.8 69 69 NNW 21 33 30.27 1025 10 16 0.00 0.00

Powered by AerisWeather